Tracking 35331 objects as of 16-Sep-2026
HD Live streaming from Space Station
objects crossing your sky now

FREGAT DEB


FREGAT DEB is no longer on orbit


NORAD ID: 46618
Int'l Code: 2011-037MJ
Launch date: July 18, 2011
Source: Commonwealth of Independent States (former USSR) (CIS)
Launch site: TYURATAM MISSILE AND SPACE COMPLEX (TTMTR)
Decay date: 2023-07-15

Note: This is SATELLITE DEBRIS
Your satellite tracking list
Your tracking list is empty




NASA's NSSDC Master Catalog

Two Line Element Set (TLE):
1 46618U 11037MJ  21239.13912659 -.00116886  00000-0 -99507-1 0  9993
2 46618  51.4761 286.6413 2421199 276.9719  56.4145  9.91549555 33160
Source of the keplerian elements: AFSPC